Regional Weather Roundup
Issued by NWS

Home | Current Version | Previous Version | Text Only | Print | Product List | Glossary Off
Versions: 1 2 3 4 5 6 7 8 9 10 11 12 13 14 15 16 17 18 19 20 21 22 23 24 25 26 27 28 29 30 31 32 33 34 35 36 37 38 39 40 41 42 43 44 45 46 47 48

000
ASUS45 KBOU 241307
RWRCO

WEATHER ROUNDUP FOR COLORADO
NATIONAL WEATHER SERVICE DENVER/BOULDER CO
600 AM MST SAT JAN 24 2015

NOTE: "FAIR" INDICATES FEW OR NO CLOUDS BELOW 12000 FEET WITH NO
SIGNIFICANT WEATHER AND/OR OBSTRUCTIONS TO VISIBILITY.

COZ001>005-013-030-031-241400-
...NORTHWEST COLORADO...

CITY           SKY/WX    TMP DP  RH WIND       PRES   REMARKS
CRAIG          MOCLDY     5   0  79 CALM      30.39F
HAYDEN         MOCLDY    10   1  67 E13       30.36F WCI  -5
MEEKER         PTCLDY     9   2  73 E6        30.38F WCI  -1
MOUNT WERNER   NOT AVBL
STEAMBOAT SPGS MOCLDY     4  -1  81 N6        30.38S WCI  -7
WALDEN         PTCLDY     9   3  78 E6        30.29F WCI  -1
$$

COZ006>008-011-241400-
...WEST CENTRAL VALLEYS...

CITY           SKY/WX    TMP DP  RH WIND       PRES   REMARKS
GRAND JUNCTION PTCLDY    20  12  71 E5        30.43R WCI  13
MONTROSE       PTCLDY    20   8  60 CALM      30.46R
EAGLE          PTCLDY     7   3  85 CALM      30.48F
RIFLE          PTCLDY    17   9  70 SE5       30.44S WCI  10
DELTA          PTCLDY    19  12  76 NE8       30.46R WCI   8
NUCLA          PTCLDY    21  12  68 E6        30.44R WCI  14
$$

COZ017>023-064>068-241400-
...SOUTHWEST COLORADO...

CITY           SKY/WX    TMP DP  RH WIND       PRES   REMARKS
DURANGO        PTCLDY    15  12  88 CALM      30.33S
CORTEZ         CLEAR     18  13  80 W3        30.34F
PAGOSA SPRINGS PTCLDY    10   9  94 CALM      30.33S
TELLURIDE      PTCLDY    23   6  49 SE8       30.35F WCI  14
WOLF CREEK PAS NOT AVBL
$$

COZ009-010-012-014-032>034-037-058>063-241400-
...CENTRAL COLORADO...

CITY           SKY/WX    TMP DP  RH WIND       PRES   REMARKS
ASPEN          PTCLDY     6   0  76 S6        30.39R WCI  -4
BUENA VISTA    MOCLDY    19   9  65 W3        30.28S
COPPER MTN     MOCLDY    18  10  73 W13       30.32S WCI   4
BERTHOUD PASS  FAIR       7   1  78 NW28G33   30.26F WCI -16
COTTONWOOD PAS MOCLDY    30   7  37 NW8G18    30.26R WCI  23
GUNNISON       MOCLDY    -6 -22  45 NW5       30.47R WCI -17
KREMMLING      PTCLDY    -4  -8  84 CALM      30.43F
LEADVILLE      MOCLDY    11   5  77 NE10      30.31R WCI  -3
MONARCH PASS   PTCLDY    14   5  67 MISG      30.39R
SALIDA         NOT AVBL
SUNLIGHT       PTCLDY    23   7  50 NW6       30.36F WCI  16
WILKERSON PASS PTCLDY    27 -13  17 NW10G17   30.26F WCI  17
$$

COZ069>075-241400-
...SAN LUIS VALLEY/SANGRE DE CRISTO MOUNTAINS...

CITY           SKY/WX    TMP DP  RH WIND       PRES   REMARKS
ALAMOSA        PTCLDY     3  -1  83 E3        30.34R
LA VETA PASS   NOT AVBL
SAGUACHE       PTCLDY    12   3  67 N8        30.32S WCI   1
$$

COZ035-036-038>040-241400-
...NORTHERN COLORADO FRONT RANGE...

CITY           SKY/WX    TMP DP  RH WIND       PRES   REMARKS
DENVER INTL AP PTCLDY    31  18  58 SW14      30.07F WCI  21
DMNS CITY PARK   N/A     33  15  47 S7        30.08F WCI  26
AURORA         PTCLDY    28  17  64 S10       30.10F WCI  18
FRONT RANGE AP NOT AVBL
ERIE MUNI ARPT CLEAR     21  16  82 CALM      30.08F
BOULDER MUN AP CLEAR     43  12  28 SW15G22   30.06F
CENTENNIAL     CLEAR     33  14  45 SW5       30.11S WCI  29
BROOMFIELD     CLEAR     39  12  33 W12       30.08F
FORT COLLINS   PTCLDY    25  18  74 S7        30.06F WCI  17
LONGMONT       PTCLDY    22  15  75 SW5       30.09F WCI  15
$$

COZ041-046-047-076>085-087-088-241400-
...PIKES PEAK/PALMER DIVIDE AND SOUTHERN FOOTHILLS...

CITY           SKY/WX    TMP DP  RH WIND       PRES   REMARKS
COLO. SPRINGS  PTCLDY    29  16  58 NW5       30.12F WCI  24
A. F. ACADEMY  CLEAR     20  10  64 NE9       30.11F WCI  10
ELLICOTT       PTCLDY   N/A N/A N/A N3        30.09F
FALCON         PTCLDY    30  13  49 W10       30.12F WCI  21
FORT CARSON    PTCLDY    24  16  70 NW7       30.09F WCI  16
LIMON          CLEAR     19  15  84 CALM      30.09F
MONUMENT HILL  CLEAR     21  10  63 W9        30.12S WCI  11
TRINIDAD       PTCLDY    30  18  60 SW15      30.15R WCI  19
$$

COZ042>045-048>051-090-091-241400-
...NORTHEAST COLORADO...

CITY           SKY/WX    TMP DP  RH WIND       PRES   REMARKS
GREELEY ARPT   PTCLDY    19  12  73 W5        30.05F WCI  13
AKRON          PTCLDY    26  22  84 W15       30.05F WCI  14
BURLINGTON     CLEAR     31  24  75 W10       30.09F WCI  22
WRAY           CLEAR     27  25  89 W8        30.05F WCI  19
STERLING       PTCLDY    27  25  93 S9        30.04F WCI  17
HOLYOKE        CLEAR     28  23  80 W10       30.03F WCI  19
FORT MORGAN    PTCLDY    25  20  82 SW10      30.04F WCI  15
$$

COZ086-089-092>099-241400-
...SOUTHEAST COLORADO...

CITY           SKY/WX    TMP DP  RH WIND       PRES   REMARKS
PUEBLO         PTCLDY    23  19  85 W8        30.13F WCI  14
LA JUNTA       PTCLDY    24  20  84 NW5       30.15R WCI  18
LAMAR          CLEAR     25  22  88 W6        30.14R WCI  18
SPRINGFIELD      N/A     27  20  75 W9        30.13F WCI  18
$$


USA.gov is the U.S. government's official web portal to all federal, state and local government web resources and services.